Terminal Aerodrome Forecast
Issued by NWS Omaha/Valley, NE

Home | Current Version | Previous Version | Text Only | Print | Product List | Glossary On
Versions: 1 2 3 4 5 6 7 8 9 10 11 12 13 14 15 16 17 18 19 20 21 22 23 24 25 26 27 28 29 30 31 32 33 34 35 36 37 38 39 40 41 42 43 44 45 46 47 48 49 50
000
FTUS43 KOAX 061905 AAD
TAFOMA
TAF AMD
KOMA 061905Z 0619/0718 34014G23KT P6SM SCT020 BKN035
      TEMPO 0619/0621 5SM -SHRA BKN020
     FM070000 36012KT P6SM SCT025 BKN150
     FM070300 36011KT P6SM SCT250=

USA.gov is the U.S. government's official web portal to all federal, state and local government web resources and services.